Regional Weather Roundup
Issued by NWS State College, PA

Current Version | Previous Version | Text Only | Print | Product List | Glossary On
Versions: 1 2 3 4 5 6 7 8 9 10 11 12 13 14 15 16 17 18 19 20 21 22 23 24 25 26 27 28 29 30 31 32 33 34 35 36 37 38 39 40 41 42 43 44 45 46 47 48 49 50
000
ASUS41 KCTP 241110
RWRCTP

REGIONAL WEATHER ROUNDUP
NATIONAL WEATHER SERVICE STATE COLLEGE PA
700 AM EDT TUE MAY 24 2022

Note: "fair" indicates few or no clouds below 12,000 feet with no
significant weather and/or obstructions to visibility.

* = STATION THAT DOES NOT REPORT PRECIPITATION /E.G. RAIN...SNOW...ETC/
    THUNDER OR FOG.

PAZ002>004-007>009-013>016-020>023-029>032-241200-
WESTERN PENNSYLVANIA

CITY           SKY/WX    TMP DP  RH WIND       PRES   REMARKS
ERIE           MOSUNNY   49  43  80 NE5       30.25R
MEADVILLE      SUNNY     45  42  89 NE5       30.23R
FRANKLIN       SUNNY     46  45  96 NE7       30.23R
NEW CASTLE     FAIR      48  45  89 NE6       30.22R
BEAVER COUNTY  PTSUNNY   51  44  77 N5        30.19R
BUTLER         PTSUNNY   50  46  86 NE8       30.20R
PITTSBURGH INT PTSUNNY   52  47  83 NE6       30.17R
PITTSBURGH     MOSUNNY   53  48  83 E5        30.16R
INDIANA*       CLOUDY    54  50  87 E7        30.23R
LATROBE        SUNNY     54  50  87 NE6       30.18R
WASHINGTON CO* PTCLDY    50  49  96 NE3       30.19R
$$

PAZ004>006-010>012-017>019-024>028-033>037-041-042-045-046-049>053-241200-
CENTRAL PENNSYLVANIA

CITY           SKY/WX    TMP DP  RH WIND       PRES   REMARKS
BRADFORD       SUNNY     48  41  76 CALM      30.25R
ST MARYS       PTSUNNY   46  45  93 CALM      30.27
DUBOIS         CLOUDY    49  44  83 E5        30.22R
CLEARFIELD     CLOUDY    50  46  86 NE6       30.23R
JOHNSTOWN      CLOUDY    51  47  86 SE3       30.20R
SOMERSET       CLOUDY    50  46  87 E5        30.21R
ALTOONA        CLOUDY    55  49  80 CALM      30.23R
STATE COLLEGE  CLOUDY    52  46  82 NE6       30.24R
REEDSVILLE     CLOUDY    57  52  82 NE7       30.22
WELLSBORO      CLOUDY    45  45 100 NE5       30.25S
WILLIAMSPORT   CLOUDY    54  48  80 CALM      30.24R
SELINSGROVE    CLOUDY    56  51  84 N5        30.24R
FT INDIANTOWN  CLOUDY    59  48  67 NE3       30.21R
CAPITAL CITY   CLOUDY    64  52  64 CALM      30.21R
HARRISBURG     CLOUDY    62  51  67 CALM      30.20R
YORK           CLOUDY    59  53  80 CALM      30.21R
$$

PAZ038>040-043-044-047-048-054-055-060>062-067>071-241200-
EASTERN PENNSYLVANIA

CITY           SKY/WX    TMP DP  RH WIND       PRES   REMARKS
TOWANDA        MOSUNNY   50  50 100 SW3       30.30S
SCRANTON       CLOUDY    56  44  64 NE5       30.26R
MOUNT POCONO   CLOUDY    50  40  68 E8        30.26R
HAZLETON       CLOUDY    55  41  58 E5        30.28R
LEHIGHTON      CLOUDY    57  41  54 E3        30.26R
ALLENTOWN      CLOUDY    58  44  60 NE10      30.25R
QN CITY/ALNTWN CLOUDY    59  45  58 NE7       30.26R
QUAKERTOWN*    PTSUNNY   59  48  67 NE5       30.25R
PERKASIE*      PTSUNNY   57  50  77 NE5       30.25R
DOYLESTOWN     CLOUDY    60  51  72 CALM      30.24R
READING          N/A     62  49  62 MISG      30.22R
LANCASTER      CLOUDY    62  53  72 NE6       30.22R
COATESVILLE    PTSUNNY   59  55  88 CALM      30.23R
WEST CHESTER   CLOUDY    59  54  82 E5        30.23R
POTTSTOWN      CLOUDY    59  53  80 NE5       30.25R
BLUE BELL      CLOUDY    59  53  81 E5        30.24R
NORTH PHILA    CLOUDY    60  55  83 SE7       30.25R
PHILADELPHIA   LGT RAIN  62  53  72 E7        30.23R
$$



USA.gov is the U.S. government's official web portal to all federal, state and local government web resources and services.